Location: Asheville, NC
(35.6000°N, 82.5500°W)
Time: 06:04:57
(UTC-04:00)

LilacSat-2 - Pass Details

Date: 10 January 2018
Orbit: 515 x 535 km, 97.5° (Epoch: 22 July)

Event Time Altitude Azimuth Distance (km) Brightness Sun altitude
Rises 06:34:02 0° 10° (N) 2,664 ? -13.3°
Reaches altitude 10° 06:36:10 10° 9° (N) 1,767 ? -12.9°
Maximum altitude 06:39:58 81° 283° (WNW) 532 ? -12.1°
Drops below altitude 10° 06:43:44 10° 196° (SSW) 1,742 ? -11.4°
Sets 06:45:48 0° 195° (SSW) 2,622 ? -11.0°
